Back to Previous

Regional Weather Roundup

000
ASUS44 KLZK 010605
RWRLZK

WEATHER ROUNDUP FOR ARKANSAS
NATIONAL WEATHER SERVICE LITTLE ROCK AR
100 AM CDT TUE SEP 01 2015

NOTE: "FAIR" INDICATES FEW OR NO CLOUDS BELOW 12,000 FEET WITH NO
SIGNIFICANT WEATHER AND/OR OBSTRUCTIONS TO VISIBILITY.

ARZ001-003-010-029-010700-
NORTHWEST ARKANSAS
  
CITY           SKY/WX    TMP DP  RH WIND       PRES   REMARKS
FAYETTEVILLE   FAIR      68  68 100 CALM      30.07S FOG              
6HR MIN TEMP:  67; 6HR MAX TEMP:  82;                                

FORT SMITH     FAIR      74  67  78 NE3       30.03S                  
6HR MIN TEMP:  74; 6HR MAX TEMP:  86;                                

BENTONVILLE    FAIR      72  64  78 CALM      30.08R                  
6HR MIN TEMP:  72; 6HR MAX TEMP:  84;                                

ROGERS         FAIR      73  66  78 SE6       30.08S                  
6HR MIN TEMP:  73; 6HR MAX TEMP:  85;                                

SILOAM SPGS    FAIR      72  61  68 SE5       30.06R                  
6HR MIN TEMP:  72; 6HR MAX TEMP:  84;                                

HIGHFILL       FAIR      73  67  81 CALM      30.07S                  
6HR MIN TEMP:  71; 6HR MAX TEMP:  84;                                

$$

ARZ004-005-016-010700-
NORTH CENTRAL ARKANSAS
  
CITY           SKY/WX    TMP DP  RH WIND       PRES   REMARKS
BATESVILLE     FAIR      72  70  94 CALM      30.07S                  
6HR MIN TEMP:  72; 6HR MAX TEMP:  82;                                

FLIPPIN        FAIR      70  63  78 CALM      30.06R                  
6HR MIN TEMP:  70; 6HR MAX TEMP:  84;                                

MTN HOME       FAIR      72  68  87 CALM      30.07S                  
6HR MIN TEMP:  70; 6HR MAX TEMP:  81;                                

$$

ARZ040-041-010700-
WEST CENTRAL ARKANSAS
  
CITY           SKY/WX    TMP DP  RH WIND       PRES   REMARKS
MENA           FAIR      70  68  94 CALM      30.07S                  
MOUNT IDA      FAIR      70  68  93 CALM      30.04S FOG              
6HR MIN TEMP:  70; 6HR MAX TEMP:  83;                                

$$

ARZ009-017-025-026-028-010700-
NORTHEAST ARKANSAS
  
CITY           SKY/WX    TMP DP  RH WIND       PRES   REMARKS
JONESBORO      FAIR      69  68  96 NE5       30.07R                  
6HR MIN TEMP:  69; 6HR MAX TEMP:  83;                                

NEWPORT        FAIR      73  71  93 CALM      30.07R                  
6HR MIN TEMP:  73; 6HR MAX TEMP:  82;                                

WALNUT RIDGE   FAIR      72  66  83 E3        30.07S                  
6HR MIN TEMP:  72; 6HR MAX TEMP:  81;                                

BLYTHEVILLE    FAIR      73  70  90 SE3       30.08R                  
6HR MIN TEMP:  73; 6HR MAX TEMP:  83;                                

$$

ARZ022-023-033-042-044-010700-
CENTRAL ARKANSAS
  
CITY           SKY/WX    TMP DP  RH WIND       PRES   REMARKS
LITTLE ROCK    FAIR      75  69  81 E3        30.04S                  
6HR MIN TEMP:  75; 6HR MAX TEMP:  91;                                

N LITTLE ROCK    N/A     78  71  78 SE6       30.04S                  
6HR MIN TEMP:  78; 6HR MAX TEMP:  88;                                

JACKSONVILLE   FAIR      74  69  86 E1        30.04R                  
6HR MIN TEMP:  73; 6HR MAX TEMP:  88;                                

SEARCY         FAIR      73  70  90 CALM      30.07R                  
6HR MIN TEMP:  73; 6HR MAX TEMP:  88;                                

HOT SPRINGS    FAIR      73  69  87 CALM      30.05R                  
6HR MIN TEMP:  73; 6HR MAX TEMP:  83;                                

RUSSELLVILLE   FAIR      70  68  93 CALM      30.04R                  
6HR MIN TEMP:  70; 6HR MAX TEMP:  79;                                

$$

ARZ036-010700-
EAST ARKANSAS
  
CITY           SKY/WX    TMP DP  RH WIND       PRES   REMARKS
WEST MEMPHIS   FAIR      73  70  90 S3        30.06R                  
6HR MIN TEMP:  71; 6HR MAX TEMP:  86;                                

$$

ARZ050-053-066-070-073-010700-
SOUTHWEST ARKANSAS
  
CITY           SKY/WX    TMP DP  RH WIND       PRES   REMARKS
ARKADELPHIA    FAIR      71  71 100 CALM      30.04R                  
6HR MIN TEMP:  71; 6HR MAX TEMP:  86;                                

CAMDEN         FAIR      70  66  88 CALM      30.04R                  
TEXARKANA      FAIR      74  65  73 CALM      30.04R                  
6HR MIN TEMP:  72; 6HR MAX TEMP:  88;                                

EL DORADO      FAIR      70  62  76 CALM      30.05R                  
6HR MIN TEMP:  69; 6HR MAX TEMP:  90;                                

DE QUEEN       FAIR      68  68 100 CALM      30.02R FOG              
6HR MIN TEMP:  68; 6HR MAX TEMP:  89;                                

$$

ARZ056-057-069-010700-
SOUTHEAST ARKANSAS
  
CITY           SKY/WX    TMP DP  RH WIND       PRES   REMARKS
PINE BLUFF     FAIR      73  69  87 E3        30.04R                  
6HR MIN TEMP:  72; 6HR MAX TEMP:  85;                                

STUTTGART      FAIR      77  66  69 SE8       30.05S                  
6HR MIN TEMP:  77; 6HR MAX TEMP:  88;                                

MONTICELLO     FAIR      74  70  87 CALM      30.04R                  
6HR MIN TEMP:  72; 6HR MAX TEMP:  84;                                


$$




USA.gov is the U.S. government's official web portal to all federal, state and local government web resources and services.